📊 Raw Sensor Data

Showing records 37076 to 37100 of 84,908 total

ID Distance (ft) Battery V Battery A Int Temp (°F) Int Humid (%) Ext Temp (°F) Solar V RSSI SNR Time Stamp
47845 15.2 3.86 -5 56 44 57 0.00 -69 7 07/31/2025 05:30 AM
47844 15.3 3.86 -5 56 44 57 0.00 -70 8 07/31/2025 05:15 AM
47843 15.2 3.92 -5 56 44 57 0.00 -70 8 07/31/2025 05:00 AM
47842 15.2 3.83 -5 56 44 57 0.00 -69 8 07/31/2025 04:45 AM
47841 15.3 3.85 -5 56 44 57 0.00 -69 7 07/31/2025 04:30 AM
47840 15.3 3.92 -5 56 44 57 0.00 -70 8 07/31/2025 04:15 AM
47839 15.3 3.92 -5 56 44 57 0.00 -69 8 07/31/2025 04:00 AM
47838 15.3 3.86 -5 56 44 57 0.10 -70 8 07/31/2025 03:45 AM
47837 15.3 3.86 -5 56 44 57 0.00 -70 8 07/31/2025 03:30 AM
47836 15.3 3.86 -5 56 44 58 0.00 -69 8 07/31/2025 03:15 AM
47835 15.3 3.93 -5 56 44 58 0.00 -69 7 07/31/2025 03:00 AM
47834 15.3 3.86 -5 57 44 58 0.00 -69 8 07/31/2025 02:45 AM
47833 15.3 3.86 -5 57 44 58 0.10 -69 8 07/31/2025 02:30 AM
47832 15.3 3.93 -5 57 44 58 0.00 -69 5 07/31/2025 02:15 AM
47831 15.3 3.93 -5 57 44 58 0.00 -70 8 07/31/2025 02:00 AM
47830 15.3 3.84 -5 57 44 59 0.00 -69 8 07/31/2025 01:45 AM
47829 15.3 3.85 -15 57 44 59 0.00 -70 7 07/31/2025 01:30 AM
47828 15.3 3.83 -5 57 45 59 0.10 -69 8 07/31/2025 01:15 AM
47827 15.3 3.86 -5 57 45 59 0.10 -69 8 07/31/2025 01:00 AM
47826 15.3 3.93 -5 57 45 58 0.00 -70 8 07/31/2025 12:45 AM
47825 15.4 3.93 -5 58 45 59 0.00 -69 6 07/31/2025 12:30 AM
47824 15.3 3.93 -5 58 45 59 0.00 -68 8 07/31/2025 12:15 AM
47823 15.4 3.87 -5 58 45 59 0.00 -68 8 07/31/2025 12:00 AM
47822 15.4 3.87 -5 58 45 59 0.00 -70 8 07/30/2025 11:45 PM
47821 15.4 3.86 -5 58 46 60 0.00 -68 8 07/30/2025 11:30 PM